DLH1CH EDDF-LSGG

Flight info

Callsign DLH1CH
Flight time 0h 54m
Altitude 29000
Route ANEKI3D ANEKI Y163 PABLA/N0400F310 Y163 HERBI Y164 MOPAN DCT LUTIX DCT BENOT
Aircraft A320/M-SDE2E3FGIJ1LORWXYZ/HB1

Departure

Time 2026-05-08 04:53
Airport Frankfurt Main Airport (EDDF)

Arrival

Time 2026-05-08 05:47
Airport Geneva International Airport (LSGG)
Time Latitude Longitude Altitude Speed Heading
2026-05-08 04:28 50.04735 8.56741 368 ft 0 kts 115°
2026-05-08 04:43 50.04736 8.56737 368 ft 2 kts 115°
2026-05-08 04:43 50.04742 8.56716 368 ft 2 kts 115°
2026-05-08 04:43 50.04749 8.56695 367 ft 2 kts 115°
2026-05-08 04:43 50.04755 8.56674 367 ft 1 kts 123°
2026-05-08 04:44 50.04767 8.56664 367 ft 2 kts 186°
2026-05-08 04:44 50.04773 8.56666 367 ft 1 kts 213°
2026-05-08 04:44 50.04778 8.56671 367 ft 0 kts 205°
2026-05-08 04:45 50.04777 8.56670 367 ft 0 kts 205°
2026-05-08 04:45 50.04767 8.56663 367 ft 3 kts 206°
2026-05-08 04:46 50.04728 8.56601 367 ft 17 kts 237°
2026-05-08 04:46 50.04664 8.56423 362 ft 20 kts 251°
2026-05-08 04:46 50.04612 8.56202 360 ft 21 kts 251°
2026-05-08 04:46 50.04558 8.55987 360 ft 19 kts 236°
2026-05-08 04:47 50.04429 8.55911 359 ft 20 kts 194°
2026-05-08 04:47 50.04327 8.55939 356 ft 15 kts 157°
2026-05-08 04:47 50.04230 8.55903 353 ft 18 kts 249°
2026-05-08 04:47 50.04185 8.55708 351 ft 19 kts 250°
2026-05-08 04:48 50.04136 8.55505 352 ft 20 kts 249°
2026-05-08 04:48 50.04084 8.55290 350 ft 21 kts 251°
2026-05-08 04:48 50.04030 8.55061 346 ft 24 kts 250°
2026-05-08 04:48 50.03969 8.54808 342 ft 25 kts 250°
2026-05-08 04:49 50.03905 8.54547 338 ft 26 kts 251°
2026-05-08 04:49 50.03826 8.54293 338 ft 26 kts 234°
2026-05-08 04:49 50.03759 8.54048 341 ft 23 kts 251°
2026-05-08 04:49 50.03703 8.53813 344 ft 22 kts 249°
2026-05-08 04:50 50.03646 8.53587 343 ft 22 kts 248°
2026-05-08 04:50 50.03589 8.53354 341 ft 23 kts 250°
2026-05-08 04:50 50.03529 8.53104 338 ft 25 kts 250°
2026-05-08 04:50 50.03467 8.52857 337 ft 18 kts 248°
2026-05-08 04:51 50.03418 8.52668 336 ft 19 kts 247°
2026-05-08 04:51 50.03346 8.52594 334 ft 1 kts 181°
2026-05-08 04:51 50.03345 8.52594 334 ft 0 kts 180°
2026-05-08 04:52 50.03344 8.52594 334 ft 0 kts 180°
2026-05-08 04:52 50.03195 8.52595 331 ft 58 kts 180°
2026-05-08 04:52 50.02502 8.52603 325 ft 134 kts 180°
2026-05-08 04:53 50.01432 8.52598 651 ft 163 kts 180°
2026-05-08 04:53 50.00271 8.52570 1286 ft 172 kts 178°
2026-05-08 04:53 49.99128 8.52628 2245 ft 164 kts 175°
2026-05-08 04:53 49.97964 8.52739 2896 ft 177 kts 175°
2026-05-08 04:54 49.96692 8.52861 3483 ft 193 kts 176°
2026-05-08 04:54 49.95295 8.52978 4017 ft 215 kts 176°
2026-05-08 04:54 49.93731 8.53097 4678 ft 233 kts 177°
2026-05-08 04:54 49.92097 8.53214 5612 ft 238 kts 177°
2026-05-08 04:55 49.90454 8.53328 6563 ft 242 kts 178°
2026-05-08 04:55 49.88781 8.53443 7494 ft 246 kts 178°
2026-05-08 04:55 49.87062 8.53561 8427 ft 249 kts 179°
2026-05-08 04:55 49.85334 8.53679 9342 ft 253 kts 179°
2026-05-08 04:56 49.83597 8.53797 10232 ft 256 kts 179°
2026-05-08 04:56 49.81835 8.53915 11110 ft 259 kts 179°
2026-05-08 04:56 49.80029 8.54037 11992 ft 261 kts 179°
2026-05-08 04:56 49.78218 8.54100 12838 ft 264 kts 183°
2026-05-08 04:57 49.76380 8.53940 13529 ft 272 kts 187°
2026-05-08 04:57 49.74450 8.53687 13979 ft 289 kts 187°
2026-05-08 04:57 49.72380 8.53407 14397 ft 307 kts 187°
2026-05-08 04:57 49.70194 8.53112 14785 ft 325 kts 187°
2026-05-08 04:58 49.67906 8.52808 15340 ft 336 kts 187°
2026-05-08 04:58 49.65567 8.52500 16077 ft 341 kts 187°
2026-05-08 04:58 49.63222 8.52193 16829 ft 344 kts 187°
2026-05-08 04:58 49.60830 8.51878 17547 ft 347 kts 187°
2026-05-08 04:59 49.58399 8.51558 18244 ft 351 kts 187°
2026-05-08 04:59 49.55966 8.51238 18900 ft 355 kts 187°
2026-05-08 04:59 49.53518 8.50915 19550 ft 358 kts 187°
2026-05-08 04:59 49.51037 8.50588 20191 ft 361 kts 187°
2026-05-08 05:00 49.48537 8.50259 20819 ft 364 kts 187°
2026-05-08 05:00 49.45978 8.49923 21443 ft 367 kts 187°
2026-05-08 05:00 49.43433 8.49590 22043 ft 370 kts 187°
2026-05-08 05:00 49.40879 8.49255 22629 ft 373 kts 187°
2026-05-08 05:01 49.38303 8.48916 23195 ft 376 kts 187°
2026-05-08 05:01 49.35673 8.48573 23759 ft 379 kts 188°
2026-05-08 05:01 49.33059 8.48231 24298 ft 382 kts 188°
2026-05-08 05:01 49.30389 8.47884 24841 ft 385 kts 188°
2026-05-08 05:02 49.27751 8.47544 25495 ft 384 kts 188°
2026-05-08 05:02 49.25098 8.47201 26202 ft 381 kts 188°
2026-05-08 05:02 49.22477 8.46860 26868 ft 379 kts 188°
2026-05-08 05:02 49.19867 8.46520 27496 ft 378 kts 188°
2026-05-08 05:03 49.17257 8.46180 28038 ft 379 kts 188°
2026-05-08 05:03 49.14636 8.45838 28522 ft 381 kts 188°
2026-05-08 05:03 49.11997 8.45495 28947 ft 384 kts 188°
2026-05-08 05:03 49.09343 8.45150 29048 ft 385 kts 188°
2026-05-08 05:04 49.04065 8.43969 29049 ft 383 kts 195°
2026-05-08 05:04 48.98861 8.42162 29050 ft 383 kts 196°
2026-05-08 05:05 48.93708 8.40366 29048 ft 383 kts 196°
2026-05-08 05:05 48.88514 8.38559 29041 ft 382 kts 196°
2026-05-08 05:06 48.83339 8.36764 29041 ft 383 kts 196°
2026-05-08 05:06 48.80730 8.35860 29144 ft 391 kts 196°
2026-05-08 05:06 48.78029 8.34919 29368 ft 398 kts 195°
2026-05-08 05:07 48.75343 8.33946 29770 ft 401 kts 196°
2026-05-08 05:07 48.72631 8.32954 30314 ft 399 kts 196°
2026-05-08 05:07 48.69971 8.31981 30820 ft 398 kts 196°
2026-05-08 05:07 48.67270 8.30992 31025 ft 397 kts 196°
2026-05-08 05:08 48.61937 8.29046 31028 ft 396 kts 196°
2026-05-08 05:08 48.56596 8.27102 31028 ft 395 kts 196°
2026-05-08 05:09 48.51253 8.25164 31025 ft 395 kts 196°
2026-05-08 05:09 48.45929 8.23230 31028 ft 395 kts 196°
2026-05-08 05:10 48.37925 8.20304 31027 ft 395 kts 196°
2026-05-08 05:11 48.32622 8.18371 31027 ft 394 kts 196°
2026-05-08 05:11 48.27325 8.16358 31030 ft 393 kts 199°
2026-05-08 05:12 48.22179 8.13571 31024 ft 392 kts 206°
2026-05-08 05:12 48.17288 8.10046 31023 ft 391 kts 208°
2026-05-08 05:13 48.12427 8.06457 31023 ft 390 kts 208°
2026-05-08 05:13 48.07574 8.02879 31022 ft 391 kts 208°
2026-05-08 05:14 48.02698 7.99291 31023 ft 390 kts 208°
2026-05-08 05:14 47.97848 7.95730 31021 ft 390 kts 208°
2026-05-08 05:15 47.93019 7.92192 31029 ft 389 kts 208°
2026-05-08 05:15 47.88164 7.88641 31023 ft 388 kts 208°
2026-05-08 05:16 47.83321 7.85109 31023 ft 388 kts 208°
2026-05-08 05:16 47.78492 7.81590 31019 ft 388 kts 208°
2026-05-08 05:17 47.73662 7.78081 31024 ft 387 kts 208°
2026-05-08 05:17 47.68838 7.74584 31020 ft 386 kts 208°
2026-05-08 05:18 47.64033 7.71105 31023 ft 386 kts 208°
2026-05-08 05:18 47.59196 7.67612 31026 ft 385 kts 208°
2026-05-08 05:19 47.54418 7.64167 31025 ft 385 kts 208°
2026-05-08 05:19 47.49596 7.60698 31029 ft 385 kts 208°
2026-05-08 05:20 47.44797 7.57254 31031 ft 385 kts 208°
2026-05-08 05:20 47.40006 7.53821 31026 ft 384 kts 208°
2026-05-08 05:21 47.35203 7.50384 31025 ft 383 kts 208°
2026-05-08 05:21 47.30405 7.46958 31017 ft 383 kts 208°
2026-05-08 05:22 47.25633 7.43560 31007 ft 383 kts 208°
2026-05-08 05:22 47.20861 7.40094 31000 ft 382 kts 212°
2026-05-08 05:23 47.16487 7.35693 30998 ft 380 kts 221°
2026-05-08 05:23 47.12782 7.30222 31010 ft 380 kts 231°
2026-05-08 05:24 47.09483 7.24166 31012 ft 381 kts 232°
2026-05-08 05:24 47.06207 7.18121 31019 ft 381 kts 232°
2026-05-08 05:25 47.02896 7.12044 31026 ft 381 kts 231°
2026-05-08 05:25 46.99586 7.05988 31031 ft 382 kts 231°
2026-05-08 05:26 46.96275 6.99936 31013 ft 382 kts 231°
2026-05-08 05:26 46.94637 6.96951 30616 ft 381 kts 231°
2026-05-08 05:26 46.92948 6.93878 29528 ft 392 kts 231°
2026-05-08 05:26 46.91215 6.90822 28495 ft 398 kts 229°
2026-05-08 05:27 46.89321 6.87857 27598 ft 401 kts 226°
2026-05-08 05:27 46.87390 6.84923 26763 ft 401 kts 227°
2026-05-08 05:27 46.85467 6.82006 26114 ft 396 kts 227°
2026-05-08 05:27 46.83571 6.79132 25481 ft 392 kts 227°
2026-05-08 05:28 46.81710 6.76315 24814 ft 389 kts 227°
2026-05-08 05:28 46.79824 6.73461 24132 ft 387 kts 227°
2026-05-08 05:28 46.77992 6.70692 23472 ft 384 kts 227°
2026-05-08 05:28 46.76132 6.67882 22814 ft 381 kts 226°
2026-05-08 05:29 46.74316 6.65142 22174 ft 379 kts 226°
2026-05-08 05:29 46.72505 6.62411 21556 ft 376 kts 226°
2026-05-08 05:29 46.70703 6.59698 20950 ft 373 kts 226°
2026-05-08 05:29 46.68911 6.57003 20337 ft 370 kts 226°
2026-05-08 05:30 46.67136 6.54336 19748 ft 367 kts 226°
2026-05-08 05:30 46.65356 6.51665 19163 ft 365 kts 226°
2026-05-08 05:30 46.63607 6.49042 18584 ft 362 kts 226°
2026-05-08 05:30 46.61868 6.46436 18026 ft 360 kts 226°
2026-05-08 05:31 46.60135 6.43842 17472 ft 357 kts 226°
2026-05-08 05:31 46.58421 6.41280 16919 ft 355 kts 226°
2026-05-08 05:31 46.56716 6.38734 16381 ft 352 kts 226°
2026-05-08 05:31 46.55011 6.36192 15860 ft 349 kts 226°
2026-05-08 05:32 46.53339 6.33704 15349 ft 347 kts 225°
2026-05-08 05:32 46.51646 6.31202 15033 ft 337 kts 225°
2026-05-08 05:32 46.50034 6.28821 15021 ft 329 kts 225°
2026-05-08 05:32 46.48441 6.26471 15025 ft 328 kts 225°
2026-05-08 05:33 46.46854 6.24131 15027 ft 328 kts 225°
2026-05-08 05:33 46.45246 6.21762 15037 ft 328 kts 225°
2026-05-08 05:33 46.43661 6.19427 15033 ft 328 kts 225°
2026-05-08 05:33 46.42056 6.17064 15029 ft 328 kts 225°
2026-05-08 05:34 46.40458 6.14711 15009 ft 328 kts 225°
2026-05-08 05:34 46.38863 6.12368 14698 ft 330 kts 225°
2026-05-08 05:34 46.37256 6.10009 14160 ft 330 kts 225°
2026-05-08 05:34 46.35664 6.07675 13686 ft 329 kts 225°
2026-05-08 05:35 46.34064 6.05331 13226 ft 327 kts 225°
2026-05-08 05:35 46.32470 6.02998 12771 ft 325 kts 225°
2026-05-08 05:35 46.30884 6.00678 12318 ft 322 kts 225°
2026-05-08 05:35 46.29339 5.98419 11884 ft 319 kts 225°
2026-05-08 05:36 46.27780 5.96143 11438 ft 317 kts 225°
2026-05-08 05:36 46.26241 5.93897 11001 ft 314 kts 224°
2026-05-08 05:36 46.24706 5.91661 10548 ft 312 kts 224°
2026-05-08 05:36 46.23211 5.89484 10230 ft 304 kts 224°
2026-05-08 05:37 46.21754 5.87363 10090 ft 290 kts 224°
2026-05-08 05:37 46.20353 5.85326 9907 ft 280 kts 224°
2026-05-08 05:37 46.18984 5.83337 9517 ft 279 kts 224°
2026-05-08 05:37 46.17623 5.81362 9133 ft 278 kts 224°
2026-05-08 05:38 46.16261 5.79387 8767 ft 275 kts 224°
2026-05-08 05:38 46.14920 5.77443 8415 ft 273 kts 224°
2026-05-08 05:38 46.13586 5.75511 8085 ft 270 kts 224°
2026-05-08 05:38 46.12298 5.73647 7981 ft 258 kts 224°
2026-05-08 05:39 46.11002 5.71928 7859 ft 247 kts 212°
2026-05-08 05:39 46.09417 5.71294 7721 ft 235 kts 176°
2026-05-08 05:39 46.07897 5.71989 7440 ft 234 kts 145°
2026-05-08 05:39 46.06708 5.73566 7151 ft 232 kts 135°
2026-05-08 05:40 46.05585 5.75217 6863 ft 231 kts 135°
2026-05-08 05:40 46.04460 5.76841 6588 ft 230 kts 134°
2026-05-08 05:40 46.03572 5.78731 6254 ft 230 kts 104°
2026-05-08 05:40 46.03621 5.80989 6014 ft 225 kts 69°
2026-05-08 05:41 46.04465 5.82779 5992 ft 210 kts 45°
2026-05-08 05:41 46.05468 5.84189 5979 ft 198 kts 45°
2026-05-08 05:41 46.06447 5.85560 5921 ft 197 kts 44°
2026-05-08 05:41 46.07435 5.86891 5762 ft 189 kts 44°
2026-05-08 05:42 46.08385 5.88191 5489 ft 186 kts 44°
2026-05-08 05:42 46.09292 5.89472 5215 ft 182 kts 45°
2026-05-08 05:42 46.10172 5.90747 4957 ft 179 kts 45°
2026-05-08 05:42 46.11036 5.92018 4701 ft 175 kts 45°
2026-05-08 05:43 46.11864 5.93246 4455 ft 167 kts 46°
2026-05-08 05:43 46.12653 5.94420 4213 ft 156 kts 45°
2026-05-08 05:43 46.13382 5.95503 4014 ft 148 kts 45°
2026-05-08 05:43 46.14102 5.96573 3841 ft 148 kts 45°
2026-05-08 05:44 46.14814 5.97629 3658 ft 147 kts 45°
2026-05-08 05:44 46.15511 5.98662 3460 ft 140 kts 45°
2026-05-08 05:44 46.16160 5.99623 3274 ft 129 kts 45°
2026-05-08 05:44 46.16785 6.00546 3108 ft 129 kts 45°
2026-05-08 05:45 46.17404 6.01460 2944 ft 128 kts 45°
2026-05-08 05:45 46.18028 6.02379 2774 ft 128 kts 45°
2026-05-08 05:45 46.18657 6.03306 2597 ft 128 kts 45°
2026-05-08 05:45 46.19276 6.04219 2421 ft 128 kts 45°
2026-05-08 05:46 46.19903 6.05142 2242 ft 128 kts 45°
2026-05-08 05:46 46.20523 6.06055 2070 ft 128 kts 45°
2026-05-08 05:46 46.21141 6.06965 1900 ft 127 kts 45°
2026-05-08 05:46 46.21764 6.07880 1729 ft 127 kts 45°
2026-05-08 05:47 46.22388 6.08792 1551 ft 127 kts 45°
2026-05-08 05:47 46.23005 6.09710 1421 ft 125 kts 42°
2026-05-08 05:47 46.23499 6.10433 1388 ft 64 kts 45°
2026-05-08 05:47 46.23650 6.10659 1384 ft 12 kts 52°
2026-05-08 05:48 46.23617 6.10730 1381 ft 12 kts 184°
2026-05-08 05:48 46.23527 6.10695 1382 ft 13 kts 195°
2026-05-08 05:48 46.23443 6.10660 1385 ft 12 kts 199°
2026-05-08 05:48 46.23371 6.10591 1387 ft 12 kts 227°
2026-05-08 05:49 46.23309 6.10500 1390 ft 12 kts 225°
2026-05-08 05:49 46.23244 6.10406 1392 ft 13 kts 225°
2026-05-08 05:49 46.23183 6.10336 1395 ft 8 kts 169°
2026-05-08 05:49 46.23131 6.10400 1396 ft 10 kts 135°
2026-05-08 05:50 46.23078 6.10476 1395 ft 9 kts 127°
2026-05-08 05:50 46.23089 6.10559 1394 ft 8 kts 110°
2026-05-08 05:50 46.23064 6.10601 1393 ft 3 kts 136°
2026-05-08 05:50 46.23054 6.10614 1393 ft 0 kts 135°
2026-05-08 05:51 46.23053 6.10615 1393 ft 1 kts 135°
2026-05-08 05:51 46.23053 6.10616 1393 ft 0 kts 135°